Location: Boullarre
(49.1305°N, 3.0047°E)
Time: 12:17:27
(UTC+00:00)

Cosmos 2322 Rocket - Visible Passes

Search period start: 25 September 2023 00:00
Search period end: 05 October 2023 00:00
Orbit: 833 x 849 km, 71.0° (Epoch: 25 September)

Date Brightness Start Highest point End Pass type
(mag) Time Alt. Az. Time Alt. Az. Time Alt. Az.
25 Sep 5.2 00:33:00 10° N 00:34:27 11° NNE 00:35:54 10° NE visible
25 Sep 3.7 02:15:15 10° NNW 02:20:22 34° NE 02:25:28 10° ESE visible
25 Sep 2.3 03:59:11 10° NW 04:04:38 51° WSW 04:10:05 10° S visible
25 Sep 3.0 18:54:20 10° SW 18:59:50 55° NW 19:05:23 10° NNE visible
25 Sep 5.0 20:41:58 10° WNW 20:45:12 15° NNW 20:48:26 10° N visible
26 Sep 5.2 00:18:00 10° N 00:19:12 11° NNE 00:20:25 10° NE visible
26 Sep 3.8 02:00:07 10° NNW 02:05:11 32° NE 02:10:14 10° ESE visible
26 Sep 2.2 03:44:00 10° NW 03:49:30 53° WSW 03:54:59 10° S visible
26 Sep 2.9 18:39:09 10° SW 18:44:39 58° WNW 18:50:14 10° NNE visible
26 Sep 5.0 20:26:38 10° WNW 20:29:59 16° NNW 20:33:20 10° N visible
27 Sep 5.2 00:03:04 10° NNE 00:03:58 10° NNE 00:04:54 10° NNE visible
27 Sep 3.8 01:44:58 10° NNW 01:49:59 31° NE 01:55:00 10° ESE visible
27 Sep 2.2 03:28:50 10° NW 03:34:21 56° WSW 03:39:52 10° S visible
27 Sep 2.8 18:23:57 10° SW 18:29:30 60° WNW 18:35:05 10° NNE visible
27 Sep 4.9 20:11:19 10° WNW 20:14:46 16° NW 20:18:14 10° N visible
27 Sep 5.2 23:48:17 10° NNE 23:48:44 10° NNE 23:49:12 10° NNE visible
28 Sep 3.9 01:29:51 10° NNW 01:34:48 30° NE 01:39:45 10° ESE visible
28 Sep 2.1 03:13:39 10° NW 03:19:13 59° WSW 03:24:45 10° S visible
28 Sep 2.8 18:08:46 10° SW 18:14:20 63° WNW 18:19:56 10° NNE visible
28 Sep 4.9 19:56:00 10° WNW 19:59:33 17° NW 20:03:07 10° N visible
29 Sep 3.9 01:14:43 10° NNW 01:18:56 28° NNE 01:18:56 28° NNE visible
29 Sep 3.7 02:58:29 10° NW 03:12:01 - SSE 03:00:34 23° NW visible
29 Sep 2.7 17:53:35 10° SW 17:59:09 66° WNW 18:04:47 10° NNE visible
29 Sep 4.8 19:40:41 10° WNW 19:44:20 17° NW 19:48:00 10° N visible
30 Sep 4.3 00:59:35 10° NNW 01:02:21 22° NNE 01:02:21 22° NNE visible
30 Sep 4.3 02:43:19 10° NNW 02:44:03 14° NW 02:44:03 14° NW visible
30 Sep 4.8 19:25:22 10° WNW 19:29:07 18° NW 19:32:54 10° N visible
01 Oct 4.5 00:44:27 10° NNW 00:46:25 19° N 00:46:25 19° N visible
01 Oct 4.7 02:28:08 10° NNW 02:28:08 10° NNW 02:28:08 10° NNW visible
01 Oct 4.7 19:10:04 10° W 19:13:55 18° NW 19:17:47 10° N visible
02 Oct 4.7 00:29:19 10° NNW 00:30:46 16° N 00:30:46 16° N visible
02 Oct 4.7 18:54:47 10° W 18:58:42 19° NW 19:02:39 10° N visible
03 Oct 4.8 00:14:11 10° NNW 00:15:18 15° N 00:15:18 15° N visible
03 Oct 4.6 18:39:28 10° W 18:43:30 20° NW 18:47:32 10° N visible
03 Oct 4.9 23:59:03 10° N 23:59:56 13° N 23:59:56 13° N visible
04 Oct 4.6 18:24:11 10° W 18:28:17 20° NW 18:32:25 10° N visible
04 Oct 4.9 23:43:56 10° N 23:44:40 13° N 23:44:40 13° N visible
